Flag for Romania Weather past 2 weeks in Constanța, Romania

Now
48 °F

Light rain. Overcast.


Feels Like: 47 °F
Forecast: 43 / 58 °F
Wind: 3 mph from North

Location: Constanta

Current Time: Apr 19, 2015 at 3:42:39 AM

Latest Report: Apr 19, 2015 at 2:00 AM


Visibility: 6 mi

Pressure: 29.90 "Hg

Humidity: 89%

Dew point: 45 °F

Location of ConstanțaLocation

Historic Weather in Constanța — Graph

°F

Constanța temperature yesterday

Maximum temperature yesterday: 72 °F (at 3:00 PM)
Minimum temperature yesterday: 50 °F (at 11:00 PM)
Average temperature yesterday: 61 °F

Past Weeks' High & Low Weather Summary

 TemperatureHumidityPressure
High82 °F (Apr 17, 3:00 PM)99% (Apr 6, 6:00 PM)30.38 "Hg (Apr 6, 6:00 PM)
Low36 °F (Apr 4, 8:00 AM)22% (Apr 17, 3:00 PM)29.65 "Hg (Apr 7, 2:00 AM)
Average53 °F59%30.03 "Hg
* Reported Apr 4 2:00 AM — Apr 19 2:00 AM, Constanța, Weather by CustomWeather, © 2015

Note: Actual official high and low records may vary slightly from our data, if they occured in-between our weather recording intervals... More about our weather records

Advertising

Constanța weather history for previous 24 hours

 ConditionsComfort  
Time TempWeatherWind HumidityBarometerVisibility
2:00 AM
Sun, Apr 19
48 °FLight rain. Overcast.3 mph89%29.90 "Hg6 mi
1:00 AM48 °FLight rain. Overcast.5 mph92%29.90 "Hg6 mi
11:00 PM
Sat, Apr 18
50 °FOvercast.1 mph96%29.88 "Hg2 mi
10:00 PM50 °FSprinkles. Overcast.1 mph95%29.87 "Hg6 mi
9:00 PM51 °FSprinkles. Overcast.N/A95%29.85 "Hg6 mi
8:00 PM51 °FSprinkles. Overcast.1 mph94%29.81 "Hg6 mi
7:00 PM54 °FSprinkles. Overcast.2 mph88%29.77 "Hg6 mi
6:00 PM56 °FOvercast.5 mph80%29.76 "Hg6 mi
5:00 PM60 °FOvercast.2 mph72%29.76 "Hg6 mi
4:00 PM61 °FPartly sunny.5 mph69%29.75 "Hg6 mi
3:00 PM72 °FPartly sunny.6 mph40%29.73 "Hg6 mi
2:00 PM71 °FPartly sunny.9 mph40%29.74 "Hg6 mi
1:00 PM70 °FOvercast.7 mph40%29.74 "Hg6 mi
12:00 PM70 °FOvercast.7 mph38%29.75 "Hg6 mi
11:00 AM69 °FScattered clouds.6 mph43%29.74 "Hg6 mi
10:00 AM62 °FOvercast.2 mph57%29.75 "Hg6 mi
9:00 AM60 °FPartly sunny.5 mph59%29.76 "Hg6 mi
8:00 AM59 °FPartly sunny.2 mph62%29.76 "Hg6 mi
7:00 AM58 °FScattered clouds.2 mph65%29.75 "Hg6 mi
6:00 AM58 °FPassing clouds.2 mph63%29.75 "Hg6 mi
5:00 AM59 °FPassing clouds.2 mph60%29.76 "Hg6 mi
4:00 AM62 °FPassing clouds.2 mph58%29.75 "Hg6 mi
3:00 AM63 °FPassing clouds.3 mph62%29.75 "Hg6 mi
Weather by CustomWeather, © 2015

See weather overviewHow to use our weather pages